TimeCST,TemperatureF,Dew PointF,Humidity,Sea Level PressureIn,VisibilityMPH,Wind Direction,Wind SpeedMPH,Gust SpeedMPH,PrecipitationIn,Events,Conditions,WindDirDegrees,DateUTC
12:56 AM,36.0,29.1,76,30.29,10.0,ESE,4.6,-,N/A,,Clear,120,2013-01-08 06:56:00
1:56 AM,37.9,30.0,73,30.29,10.0,SSE,8.1,-,N/A,,Clear,150,2013-01-08 07:56:00
2:56 AM,37.9,30.0,73,30.28,10.0,SSE,5.8,-,N/A,,Clear,150,2013-01-08 08:56:00
3:56 AM,34.9,30.0,82,30.29,10.0,SE,4.6,-,N/A,,Clear,130,2013-01-08 09:56:00
4:56 AM,37.9,30.0,73,30.30,10.0,SE,5.8,-,N/A,,Clear,130,2013-01-08 10:56:00
5:56 AM,36.0,30.0,79,30.31,10.0,SE,4.6,-,N/A,,Clear,140,2013-01-08 11:56:00
6:56 AM,36.9,30.0,76,30.32,10.0,ESE,3.5,-,N/A,,Clear,110,2013-01-08 12:56:00
7:56 AM,37.9,30.0,73,30.34,10.0,ESE,4.6,-,N/A,,Clear,120,2013-01-08 13:56:00
8:56 AM,45.0,32.9,63,30.36,10.0,SE,5.8,-,N/A,,Partly Cloudy,130,2013-01-08 14:56:00
9:56 AM,48.9,36.0,61,30.37,10.0,Variable,6.9,-,N/A,,Clear,0,2013-01-08 15:56:00
10:56 AM,50.9,38.8,63,30.34,10.0,SSE,8.1,-,N/A,,Clear,150,2013-01-08 16:56:00
11:56 AM,54.9,39.9,57,30.32,10.0,SE,8.1,-,N/A,,Clear,140,2013-01-08 17:56:00
12:56 PM,56.8,41.0,55,30.28,10.0,SE,8.1,-,N/A,,Clear,140,2013-01-08 18:56:00
1:56 PM,55.9,41.0,57,30.29,10.0,Variable,6.9,-,N/A,,Overcast,0,2013-01-08 19:56:00
2:56 PM,56.8,41.0,55,30.28,10.0,Variable,5.8,-,N/A,,Overcast,0,2013-01-08 20:56:00
3:56 PM,55.9,41.9,59,30.28,10.0,Calm,Calm,-,N/A,,Clear,0,2013-01-08 21:56:00
4:56 PM,52.9,41.9,66,30.30,10.0,ESE,4.6,-,N/A,,Partly Cloudy,120,2013-01-08 22:56:00
5:56 PM,50.9,41.9,71,30.28,10.0,East,3.5,-,N/A,,Clear,100,2013-01-08 23:56:00
6:56 PM,50.9,43.0,74,30.28,10.0,East,4.6,-,N/A,,Clear,100,2013-01-09 00:56:00
7:56 PM,52.0,43.0,71,30.28,10.0,ESE,5.8,-,N/A,,Scattered Clouds,110,2013-01-09 01:56:00
8:04 PM,51.8,42.8,71,30.25,10.0,ESE,6.9,-,N/A,,Mostly Cloudy,110,2013-01-09 02:04:00
8:56 PM,52.9,43.9,71,30.27,10.0,ESE,6.9,-,N/A,,Overcast,120,2013-01-09 02:56:00
9:36 PM,53.6,44.6,72,30.24,10.0,ESE,6.9,-,N/A,,Overcast,120,2013-01-09 03:36:00
9:56 PM,52.9,43.9,71,30.28,10.0,ESE,6.9,-,N/A,,Overcast,120,2013-01-09 03:56:00
10:28 PM,53.6,44.6,72,30.25,10.0,SE,6.9,-,N/A,,Scattered Clouds,130,2013-01-09 04:28:00
10:47 PM,53.6,44.6,72,30.27,10.0,ESE,5.8,-,N/A,,Mostly Cloudy,120,2013-01-09 04:47:00
10:56 PM,52.9,43.9,71,30.30,10.0,SE,5.8,-,N/A,,Scattered Clouds,130,2013-01-09 04:56:00
11:56 PM,52.9,45.0,74,30.32,10.0,Variable,4.6,-,N/A,,Overcast,0,2013-01-09 05:56:00